Skip Page Navigation
NASA JPL Caltech
NASA Logo - Jet Propulsion Laboratory + View the NASA Portal
+ Center for Near-Earth Object Studies
JPL Home Earth Solar System Stars & Galaxies Technology
JPL Solar System Dynamics
BODIES ORBITS EPHEMERIDES TOOLS PHYSICAL DATA DISCOVERY FAQ SITE MAP
JPL Small-Body Database Browser
Search: [ help ]  
35910 (1999 JZ93)
Classification: Main-belt Asteroid          SPK-ID: 2035910
Ephemeris | Orbit Diagram | Orbital Elements | Mission Design | Physical Parameters | Discovery Circumstances | Close-Approach Data ]

[ hide orbit diagram ]

For accurate long-term ephemerides, please instead use our Horizons system.This orbit viewer was implemented using two-body methods, and hence should not be used for determining accurate long-term trajectories (over several years or decades) or planetary encounter circumstances.


[ revert to old Java-based viewer ]

Orbital Elements at Epoch 2459000.5 (2020-May-31.0) TDB
Reference: JPL 27 (heliocentric ecliptic J2000)
 Element Value Uncertainty (1-sigma)   Units 
e .08692149821470324 3.6674e-08  
a 2.317875456873674 7.4418e-09 au
q 2.116402249487125 8.5531e-08 au
i 6.523251785226955 3.3842e-06 deg
node 133.1810180093407 3.372e-05 deg
peri 71.70949631376966 3.8993e-05 deg
M 9.913902513710905 1.8874e-05 deg
tp 2458965.004302423536
(2020-Apr-25.50430242)
6.7578e-05 TDB
period 1288.942584401511
3.53
6.2075e-06
1.7e-08
d
yr
n .2792987091563565 1.3451e-09 deg/d
Q 2.519348664260224 8.0887e-09 au
  Orbit Determination Parameters
   # obs. used (total)      1081  
   data-arc span      8702 days (23.82 yr)  
   first obs. used      1996-08-13  
   last obs. used      2020-06-10  
   planetary ephem.      DE431  
   SB-pert. ephem.      SB431-N16  
   condition code      0  
   norm. resid. RMS      .52496  
   source      ORB  
   producer      Otto Matic  
   solution date      2020-Jun-23 20:33:55  

Additional Information
 Earth MOID = 1.12378 au 
 Jupiter MOID = 2.45427 au 
 T_jup = 3.566 
[ show covariance matrix ]

Ephemeris | Orbit Diagram | Orbital Elements | Mission Design | Physical Parameters | Discovery Circumstances | Close-Approach Data ]

Physical Parameter Table
Parameter Symbol Value Units Sigma Reference Notes
absolute magnitude H 15.7   n/a MPO412440  
diameter diameter 1.915 km 0.199 urn:nasa:pds:neowise_diameters_albedos::2.0[mainbelt] (http://adsabs.harvard.edu/abs/2011ApJ...741...68M)  
geometric albedo albedo 0.253   0.063 urn:nasa:pds:neowise_diameters_albedos::2.0[mainbelt] (http://adsabs.harvard.edu/abs/2011ApJ...741...68M)  

35910 (1999 JZ93)          Discovered 1999-May-12 by LINEAR at Socorro
Reference: 20020227/Numbers.arcLast Updated: 2004-04-19

[ show close-approach data ]
Alternate Designations
 1999 JZ93 = 2000 SX254 
Ephemeris | Orbit Diagram | Orbital Elements | Mission Design | Physical Parameters | Discovery Circumstances | Close-Approach Data ]
ABOUT SSD CREDITS/AWARDS PRIVACY/COPYRIGHT GLOSSARY LINKS
FirstGov 2020-Jul-10 07:29 UT
(server date/time)  
NASA Home Page
Site Manager:   Ryan S. Park
Webmaster  Alan B. Chamberlin